[Date Prev][Date Next][Thread Prev][Thread Next] - [Date Index][Thread Index][Author Index]
2 Line ISS Keps 8-21
- Subject: [sarex] 2 Line ISS Keps 8-21
- From: "Dave Larsen PhD" <doc@xxxxxxxxxxx>
- Date: Thu, 21 Aug 2003 05:49:22 -0700
ISS
1 25544U 98067A 03233.49125034 .00017288 00000-0 20390-3 0 3716
2 25544 51.6319 51.4945 0006852 146.7684 310.1236 15.61439653271203
----
Via the sarex mailing list at AMSAT.ORG courtesy of AMSAT-NA.
To unsubscribe, send "unsubscribe sarex" to Majordomo@amsat.org
AMSAT Home